Location: Zagreb
(45.8000°N, 16.0000°E)
Time: 00:35:43
(UTC+01:00)

NUDT-PHONESAT - Pass Details

Date: 30 October 2020
Orbit: 481 x 500 km, 97.4° (Epoch: 30 November)

Event Time Altitude Azimuth Distance (km) Brightness Sun altitude
Rises 18:35:12 0° 200° (SSW) 2,586 ? -19.7°
Reaches altitude 10° 18:37:41 10° 218° (SW) 1,709 ? -20.1°
Maximum altitude 18:40:27 20° 267° (W) 1,213 ? -20.6°
Drops below altitude 10° 18:43:15 10° 316° (NW) 1,721 ? -21.1°
Sets 18:45:46 0° 333° (NNW) 2,610 ? -21.5°
